Location: La Losa
(40.8536°N, 4.1639°W)
Time: 11:28:18
(UTC+00:00)

Daily predictions for brighter satellites

Satellite Brightness Start Highest point End
(mag) Time Altitude Azimuth Time Altitude Azimuth Time Altitude Azimuth
CZ-4B DEB 4.3 17:16:17 10° SSE 17:21:46 89° WSW 17:27:16 10° NNW
Cosmos 482 Debris 4.2 17:20:52 10° NNW 17:22:12 17° NNE 17:23:37 10° ENE
SL-8 Rocket 4.1 17:17:18 10° N 17:23:27 55° E 17:29:35 10° SSE
Cosmos 2341 Rocket 4.0 17:18:43 10° N 17:25:03 75° E 17:31:24 10° SSE
X-37B 0.6 17:23:10 10° WSW 17:26:19 78° NNW 17:29:28 10° ENE
Radarsat Rocket 4.1 17:20:18 10° SSE 17:26:22 78° ENE 17:33:12 10° NNW
COSMO-SKYMED 1 4.0 17:24:48 10° NE 17:27:54 19° E 17:30:58 10° SE
USA 281 4.5 17:24:20 10° E 17:28:30 18° NE 17:32:40 10° N
CORIOLIS 4.3 17:26:37 10° SSE 17:31:53 55° ENE 17:37:11 10° N
Meteor 1-4 Rocket 3.0 17:29:09 10° SSE 17:32:31 39° E 17:35:51 10° NNE
USA 81 4.2 17:27:53 10° N 17:33:04 53° E 17:38:13 10° SSE
PAYLOAD B 4.4 17:29:21 10° SSE 17:34:56 83° WSW 17:40:32 10° NNW
Cosmos 1812 4.5 17:33:19 10° ESE 17:35:16 14° E 17:36:36 12° ENE
Cosmos 2285 Rocket 4.0 17:28:55 10° NNW 17:35:19 71° ENE 17:41:37 10° SSE
H-2A R/B 3.8 17:35:17 11° ENE 17:35:45 11° ENE 17:36:56 10° NE
Cosmos 1356 4.5 17:32:29 10° NNW 17:35:49 50° W 17:39:07 10° S
Cosmos 1939 Rocket 3.9 17:34:49 10° ESE 17:37:52 22° ENE 17:40:57 10° NNE
Cosmos 389 Rocket 4.3 17:35:22 10° SW 17:38:26 30° WNW 17:41:30 10° NNW
Cosmos 1328 Rocket 3.5 17:34:12 10° S 17:38:27 66° E 17:42:47 10° NNE
USA 267 4.5 17:34:14 10° ENE 17:39:12 24° NNE 17:44:11 10° NW
CZ-4 R/B 3.3 17:41:26 11° NE 17:41:26 11° NE 17:42:00 10° NE
BREEZE-M DEB (TANK) 3.8 17:36:17 10° SSW 17:40:35 26° SSE 17:42:53 12° E
Cosmos 1933 Rocket 4.3 17:40:16 10° NNE 17:44:16 31° ENE 17:48:12 10° SE
Cosmos 1666 Rocket 3.8 17:40:56 10° N 17:45:22 77° W 17:49:49 10° S
Cosmos 2181 Rocket 4.1 17:39:51 10° S 17:46:17 88° E 17:52:40 10° N
Meteor 1-20 Rocket 4.3 17:40:46 10° N 17:46:40 86° E 17:52:27 10° S
Cosmos 1602 3.9 17:43:04 10° N 17:46:52 47° E 17:50:36 10° SSE
H-2A R/B 3.3 17:42:41 10° S 17:46:52 55° W 17:50:55 10° NNW
Cosmos 2237 Rocket 4.4 17:43:24 10° W 17:47:28 20° NW 17:51:34 10° N
NOAA 11 4.2 17:42:35 10° SSE 17:47:53 58° ENE 17:53:13 10° N
Cosmos 44 4.0 17:43:22 10° NW 17:48:40 65° WSW 17:54:01 10° SSE
CZ-4B R/B 3.2 17:43:48 10° SSE 17:49:08 88° WSW 17:54:27 10° NNW
Cosmos 1603 4.0 17:46:21 10° S 17:51:41 46° ESE 17:56:56 10° NE
Meteor 1-26 Rocket 4.4 17:45:51 10° S 17:51:53 80° E 17:57:54 10° NNE
CZ-2D R/B 4.3 17:51:37 10° ESE 17:54:42 24° ENE 17:57:48 10° NNE
Cosmos 1943 3.6 17:49:46 10° S 17:55:03 43° ESE 17:59:58 12° NE
Cosmos 1538 Rocket 4.0 17:51:51 10° SSW 17:57:12 79° ESE 18:02:36 10° NNE
NOAA 12 4.3 17:52:38 10° S 17:57:58 77° WSW 18:03:18 10° NNW
Cosmos 2369 Rocket 2.3 17:54:08 10° NNW 17:59:41 52° ENE 18:05:10 10° SE
H-2A R/B 3.2 17:55:46 10° N 17:59:48 45° WNW 18:03:55 10° SW
Cosmos 1782 2.7 17:56:56 10° S 18:00:52 84° E 18:04:52 10° N
Cosmos 1943 Rocket 2.1 17:55:24 10° NNW 18:01:00 86° ENE 18:06:36 10° SSE
Okean O Rocket 1.8 17:56:58 10° S 18:01:18 73° WSW 18:05:41 10° NNW
Meteor 1-14 Rocket 4.4 17:56:32 10° N 18:02:28 61° ENE 18:08:22 10° SSE
Okean-O 3.7 17:59:36 10° ESE 18:03:07 24° ENE 18:06:39 10° NNE
CENTAUR R/B 3.3 18:00:25 10° SSE 18:05:06 27° ESE 18:07:44 20° ENE
ISS -1.6 18:03:31 10° NNW 18:05:23 14° N 18:05:55 14° NNE
Cosmos 1633 Rocket 4.0 18:05:16 10° NNW 18:09:29 49° W 18:13:40 10° SSW
NOSS 3-2 (C) 4.1 18:08:28 10° S 18:13:09 29° ESE 18:15:10 24° ENE
SL-08 R/B 4.4 18:07:27 10° N 18:13:35 67° E 18:19:38 10° SSE
ERS-2 2.0 18:10:49 10° NNE 18:14:30 87° E 18:18:09 10° SSW
SKYMED 2 3.5 18:11:53 10° NNE 18:16:12 63° E 18:20:29 10° S
BREEZE-M DEB (TANK) 3.8 18:06:39 10° SW 18:18:00 76° SSE 18:20:00 30° ENE
Meteor 1-27 Rocket 4.5 18:15:09 10° SE 18:19:43 27° E 18:20:11 27° E
Meteor 1-10 Rocket 4.3 18:18:35 10° SSE 18:24:00 50° E 18:28:49 13° NNE
Lacrosse 5 rocket 3.5 18:22:42 10° NW 18:24:16 12° NNW 18:25:50 10° N
Cosmos 2366 rocket 4.5 18:18:37 10° NNW 18:24:42 62° W 18:30:43 10° S
BREEZE-M DEB (TANK) 4.3 18:25:50 10° NNW 18:26:37 14° NNW 18:26:37 14° NNW
FALCON 9 R/B 2.2 18:26:24 10° SW 18:28:14 22° S 18:28:30 21° SSE
CZ-4B R/B 2.8 18:29:35 10° N 18:32:29 35° WNW 18:35:25 10° SW
Feng Yun 1-1 Rocket 4.4 18:31:04 10° S 18:36:50 78° WSW 18:42:28 10° NNW
NOSS 3-2 (A) 3.2 18:32:39 10° SSW 18:38:11 80° ESE 18:41:27 29° NE
SL-16 R/B 4.4 18:36:26 10° W 18:40:37 21° NW 18:44:49 10° N
Cosmos 1500 3.1 18:39:03 10° N 18:42:53 83° W 18:46:43 10° S
YAOGAN 1 4.0 18:46:28 24° N 18:46:28 24° N 18:48:21 10° N
Cosmos 2239 Rocket 4.3 18:39:37 10° N 18:45:47 69° E 18:51:57 10° SSE
USA 215 3.2 18:46:42 33° NE 18:49:57 85° SE 18:56:30 10° SW
Cosmos 1656 Rocket 3.5 18:49:09 10° NNW 18:54:48 80° ENE 18:58:58 18° SSE
MOS 1 Rocket 3.5 18:52:44 25° NNE 18:55:59 79° ESE 19:01:18 10° S
NOAA 15 4.4 18:51:43 10° SSE 18:56:59 76° ENE 19:02:16 10° N
USA 238 DEB 3.5 18:50:54 10° SW 18:57:27 87° NW 19:00:35 35° NNE
USA 238 3.5 18:50:59 10° SSW 18:57:33 88° NW 19:00:39 35° NNE
Cosmos 158 Rocket 4.1 18:53:44 10° SSW 18:58:41 69° WNW 19:00:46 34° N
Cosmos 1689 Rocket 4.1 19:00:58 28° WSW 19:00:58 28° WSW 19:02:43 10° SW
CZ-2C R/B 2.8 18:54:58 10° SSE 19:00:01 88° WSW 19:04:52 10° NNW
Cosmos 923 Rocket 4.3 18:57:28 10° SSW 19:02:36 63° WNW 19:05:13 29° N
X-37B 2.8 19:00:13 10° WNW 19:01:44 23° NW 19:01:44 23° NW
Cosmos 2263 4.5 18:58:36 10° NNW 19:04:10 66° WSW 19:09:41 10° S
COSMO-SKYMED 1 4.0 19:00:19 11° N 19:04:10 37° WNW 19:08:09 10° SW
Cosmos 1238 Rocket 3.3 19:01:47 10° NNW 19:05:56 72° W 19:11:02 10° S
CSL-04 Debris 4.4 19:09:14 52° NNE 19:09:14 52° NNE 19:13:32 10° N
Cosmos 1934 Rocket 3.9 19:02:17 10° N 19:08:39 72° E 19:14:55 10° SSE
Cosmos 2228 Rocket 4.1 19:04:51 10° SSW 19:09:12 46° WNW 19:12:01 20° NNW
Cosmos 1812 4.1 19:07:07 10° SSW 19:10:40 36° WNW 19:11:43 30° NW
USA 281 3.1 19:05:31 10° SSE 19:12:04 83° ENE 19:18:41 10° NNW
H-2A R/B 2.6 19:15:55 47° N 19:15:55 47° N 19:19:32 10° N
CZ-4 R/B 3.4 19:11:01 10° S 19:17:28 20° NNW 19:18:51 10° NNW
Cosmos 2084 4.4 19:13:13 10° SW 19:16:09 44° SW 19:16:09 44° SW
USA 267 3.6 19:21:32 47° NNE 19:21:32 47° NNE 19:27:24 10° NW
Cosmos 44 Rocket 3.7 19:19:30 10° NW 19:23:56 64° NW 19:23:56 64° NW
Lacrosse 4 Rocket 3.0 19:21:14 10° SW 19:23:20 29° SW 19:23:20 29° SW
Meteor 1-11 Rocket 3.9 19:19:51 10° NNW 19:25:39 75° W 19:31:32 10° S
ATLAS 3B R/B 4.5 19:23:39 10° S 19:24:49 15° SSE 19:24:49 15° SSE
Cosmos 1680 Rocket 4.3 19:24:25 10° SW 19:29:31 48° WNW 19:30:41 41° NNW
NOSS 3-3 (A) 4.5 19:24:57 10° NW 19:32:40 87° WSW 19:35:33 46° SSE
NOSS 3-3 (C) 4.5 19:25:02 10° NW 19:32:46 87° WSW 19:35:32 48° SSE
Okean-O 4.3 19:35:28 10° SSW 19:39:26 32° W 19:43:24 10° NNW
Cosmos 2369 Rocket 4.5 19:39:04 10° NW 19:43:16 22° W 19:47:27 10° SSW
CENTAUR R/B 3.1 19:49:29 10° SW 19:54:58 52° NW 19:54:58 52° NW
NOSS 3-2 (C) 4.4 19:58:17 10° WSW 20:02:39 41° WNW 20:02:39 41° WNW
